CW6666 Weather Reports


Display with metric or nautical units.
time (UTC)temp
F
wind
direction
speed
MPH
gust
MPH
rain 1hr
in
rain 24hr
in
rain mn
in
humidity
%
barometer
mb
20160926190519 78 27 1.0 3.0 0.00 1.03 0.07 96 1007.2
20160926190049 78 325 0.0 0.0 0.00 1.03 0.07 96 1007.2
20160926185519 78 325 0.0 0.0 0.00 1.03 0.07 96 1007.2
20160926185019 78 325 0.0 0.0 0.00 1.03 0.07 96 1007.2
20160926184519 78 325 0.0 0.0 0.00 1.03 0.07 96 1007.2
20160926184019 78 325 0.0 1.0 0.00 1.03 0.07 96 1007.2
20160926183519 78 325 0.0 1.0 0.00 1.03 0.07 96 1007.2
20160926183020 78 325 0.0 0.0 0.00 1.03 0.07 96 1007.2
20160926182520 78 325 0.0 0.0 0.00 1.03 0.07 96 1007.2
20160926182019 78 325 0.0 0.0 0.00 1.03 0.07 96 1007.2
20160926181519 78 325 0.0 0.0 0.00 1.03 0.07 96 1007.2
20160926181019 78 325 0.0 0.0 0.00 1.03 0.07 96 1007.2
20160926180519 78 325 0.0 1.0 0.00 1.03 0.07 96 1007.2
20160926180049 78 325 0.0 1.0 0.00 1.03 0.07 96 1007.2
20160926175519 78 325 0.0 0.0 0.00 1.03 0.07 96 1007.2
20160926175019 78 325 0.0 0.0 0.00 1.03 0.07 96 1007.2
20160926174519 78 325 0.0 0.0 0.00 1.03 0.07 96 1007.2
20160926174020 78 325 0.0 0.0 0.00 1.03 0.07 96 1007.2
20160926173519 78 325 0.0 0.0 0.00 1.03 0.07 95 1007.2
20160926173019 78 325 0.0 0.0 0.00 1.03 0.07 95 1007.2
20160926172519 78 325 0.0 0.0 0.00 1.03 0.07 95 1007.4
20160926172019 78 325 0.0 0.0 0.00 1.03 0.07 95 1007.4
20160926171520 78 325 0.0 0.0 0.00 1.03 0.07 95 1007.4
20160926171019 78 325 0.0 0.0 0.00 1.03 0.07 95 1007.4
20160926170519 78 325 0.0 0.0 0.00 1.03 0.07 94 1007.4
20160926170049 79 325 0.0 0.0 0.00 1.03 0.07 94 1007.4
20160926165519 79 5 0.0 1.0 0.00 1.03 0.07 94 1007.4
20160926165020 79 5 0.0 9.0 0.00 1.03 0.07 94 1007.4
20160926164519 79 27 0.0 9.0 0.00 1.03 0.07 95 1007.4
20160926164019 78 38 0.0 7.0 0.00 1.03 0.07 95 1007.4
20160926163520 78 260 2.0 2.0 0.00 1.03 0.07 94 1007.4
20160926163019 78 287 0.0 2.0 0.00 1.03 0.07 94 1007.4
20160926162519 78 287 0.0 5.0 0.01 1.03 0.07 95 1007.7
20160926162019 78 293 1.0 5.0 0.07 1.03 0.07 95 1007.7
20160926161520 78 286 2.0 4.0 0.07 1.03 0.07 95 1007.7
20160926161019 78 306 1.0 4.0 0.07 1.03 0.07 94 1007.8
20160926160519 78 293 2.0 2.0 0.07 1.03 0.07 93 1007.8
20160926160049 78 277 0.0 0.0 0.07 1.03 0.07 93 1007.8
20160926155520 78 277 0.0 0.0 0.07 1.03 0.07 92 1007.7
20160926155019 78 277 0.0 2.0 0.07 1.03 0.07 92 1007.7
20160926154519 79 277 0.0 4.0 0.07 1.03 0.07 91 1007.7
20160926154019 79 17 0.0 10.0 0.07 1.03 0.07 91 1008.0
20160926153520 79 21 2.0 15.0 0.07 1.03 0.07 90 1008.0
20160926153019 80 28 7.0 22.0 0.07 1.03 0.07 90 1008.0
20160926152519 81 40 15.0 24.0 0.06 1.02 0.06 87 1007.8
20160926152019 82 54 19.0 24.0 0.00 0.96 0.00 85 1007.8
20160926151519 83 49 11.0 12.0 0.00 0.96 0.00 90 1007.8
20160926151019 83 55 8.0 11.0 0.00 0.96 0.00 89 1008.1
20160926150519 83 54 7.0 11.0 0.00 0.96 0.00 89 1008.1
20160926150049 83 44 9.0 9.0 0.00 0.96 0.00 90 1008.1
20160926145519 83 53 8.0 9.0 0.00 0.96 0.00 90 1008.2
20160926145019 83 53 5.0 9.0 0.00 0.96 0.00 90 1008.2
20160926144519 83 53 6.0 9.0 0.00 0.96 0.00 90 1008.2
20160926144019 83 62 7.0 10.0 0.00 0.96 0.00 89 1008.5
20160926143519 83 43 9.0 12.0 0.00 0.96 0.00 89 1008.5
20160926143019 83 56 7.0 12.0 0.00 0.96 0.00 88 1008.5
20160926142519 83 58 10.0 11.0 0.00 0.96 0.00 88 1008.7
20160926142020 83 58 9.0 11.0 0.00 0.96 0.00 89 1008.7
20160926141519 83 40 10.0 11.0 0.00 0.96 0.00 89 1008.7
20160926141019 83 65 7.0 11.0 0.00 0.96 0.00 89 1008.9
20160926140520 83 56 9.0 11.0 0.00 0.96 0.00 89 1008.9
20160926140049 83 71 7.0 11.0 0.00 0.96 0.00 90 1008.9
20160926135549 83 64 6.0 11.0 0.00 0.96 0.96 90 1009.2
20160926135049 83 72 10.0 11.0 0.00 0.96 0.96 90 1009.2
20160926134550 83 67 9.0 12.0 0.00 0.96 0.96 89 1009.2
20160926134049 83 67 9.0 12.0 0.00 0.96 0.96 89 1009.3
20160926133549 83 67 10.0 12.0 0.00 0.96 0.96 89 1009.3
20160926133049 83 67 8.0 13.0 0.00 0.96 0.96 90 1009.3
20160926132550 83 73 11.0 13.0 0.00 0.96 0.96 90 1009.2
20160926132049 83 59 11.0 13.0 0.00 0.96 0.96 90 1009.2
20160926131550 83 56 10.0 13.0 0.00 0.96 0.96 89 1009.2
20160926131050 83 57 12.0 13.0 0.00 0.96 0.96 89 1009.3
20160926130549 82 69 7.0 13.0 0.01 0.96 0.96 89 1009.3
20160926130049 82 76 10.0 14.0 0.01 0.96 0.96 89 1009.3
20160926125549 82 78 8.0 14.0 0.02 1.03 0.96 89 1009.3
20160926125049 82 74 14.0 14.0 0.05 1.04 0.96 89 1009.3
20160926124549 82 73 10.0 14.0 0.11 1.04 0.96 89 1009.3
20160926124049 82 83 11.0 14.0 0.11 1.04 0.96 90 1009.6
20160926123549 82 86 11.0 13.0 0.11 1.04 0.96 91 1009.6
20160926123049 81 90 9.0 13.0 0.11 1.04 0.96 92 1009.6
20160926122549 81 90 11.0 13.0 0.11 1.04 0.96 92 1009.4
20160926122049 81 82 8.0 12.0 0.11 1.04 0.96 92 1009.4
20160926121549 80 84 7.0 16.0 0.11 1.04 0.96 92 1009.4
20160926121049 80 98 9.0 16.0 0.11 1.04 0.96 92 1009.7
20160926120519 80 83 9.0 12.0 0.10 1.03 0.95 93 1009.7
20160926120049 80 83 12.0 12.0 0.10 1.03 0.95 93 1009.7
20160926115549 80 80 4.0 21.0 0.09 1.02 0.94 93 1009.7
20160926115049 81 96 10.0 21.0 0.06 0.99 0.91 91 1009.8
20160926114549 82 83 16.0 16.0 0.00 0.93 0.85 89 1009.8
20160926114049 82 50 9.0 9.0 0.00 0.93 0.85 88 1009.6
20160926113549 82 43 6.0 7.0 0.00 0.93 0.85 89 1009.6
20160926113049 81 36 4.0 7.0 0.02 0.93 0.85 88 1009.6
20160926112549 82 9 0.0 11.0 0.03 0.93 0.85 88 1009.3
20160926112049 82 26 4.0 13.0 0.05 0.93 0.85 89 1009.3
20160926111549 82 40 10.0 13.0 0.08 0.93 0.85 90 1009.3
20160926111049 81 22 5.0 8.0 0.09 0.93 0.85 92 1009.2
20160926110519 80 26 6.0 8.0 0.10 0.93 0.85 92 1009.1
20160926110049 80 355 0.0 8.0 0.10 0.93 0.85 91 1009.1
20160926105549 80 18 0.0 10.0 0.12 0.93 0.85 90 1009.0
20160926105049 80 17 4.0 10.0 0.14 0.93 0.85 90 1009.0
20160926104549 79 37 6.0 9.0 0.14 0.93 0.85 91 1009.0
20160926104049 79 48 7.0 14.0 0.14 0.93 0.85 91 1009.0
20160926103549 79 57 7.0 16.0 0.14 0.93 0.85 92 1009.0
20160926103049 79 67 14.0 20.0 0.12 0.91 0.83 92 1009.0
20160926102549 80 57 14.0 26.0 0.11 0.90 0.82 92 1008.7
20160926102049 80 52 17.0 26.0 0.09 0.88 0.80 92 1008.7
20160926101519 81 54 24.0 24.0 0.06 0.85 0.77 90 1008.7
20160926101049 81 51 20.0 24.0 0.05 0.84 0.76 91 1008.7
20160926100519 81 56 12.0 16.0 0.04 0.83 0.75 92 1008.7
20160926100049 80 66 8.0 18.0 0.04 0.83 0.75 91 1008.7
20160926095519 81 75 11.0 19.0 0.02 0.81 0.73 90 1008.2
20160926095049 82 61 15.0 19.0 0.00 0.79 0.71 90 1008.2
20160926094519 82 51 10.0 10.0 0.00 0.79 0.71 90 1008.2
20160926094049 81 40 3.0 3.0 0.00 0.79 0.71 91 1008.1
20160926093549 81 317 0.0 2.0 0.00 0.79 0.71 91 1008.1
20160926093049 81 336 0.0 2.0 0.00 0.79 0.71 91 1008.1
20160926092549 81 331 1.0 5.0 0.00 0.79 0.71 91 1007.7
20160926092049 81 342 0.0 5.0 0.00 0.79 0.71 91 1007.7
20160926091549 81 284 0.0 4.0 0.00 0.79 0.71 91 1007.7
20160926091049 81 292 0.0 2.0 0.00 0.79 0.71 90 1007.6
20160926090549 81 296 0.0 3.0 0.00 0.79 0.71 90 1007.6
20160926090049 81 294 0.0 3.0 0.00 0.79 0.71 89 1007.6
20160926085519 81 319 0.0 4.0 0.00 0.79 0.71 89 1007.6
20160926085049 82 304 0.0 4.0 0.00 0.79 0.71 89 1007.6
20160926084549 82 301 0.0 4.0 0.00 0.79 0.71 88 1007.6
20160926084049 82 327 0.0 5.0 0.00 0.79 0.71 88 1007.3
20160926083549 82 324 0.0 5.0 0.00 0.79 0.71 87 1007.3
20160926083049 83 280 0.0 3.0 0.00 0.79 0.71 87 1007.4
20160926082549 83 328 0.0 3.0 0.00 0.79 0.71 86 1007.3
20160926082049 83 330 0.0 7.0 0.00 0.79 0.71 86 1007.3
20160926081549 84 5 0.0 9.0 0.00 0.79 0.71 86 1007.3
20160926081019 84 32 4.0 9.0 0.00 0.79 0.71 86 1007.2
20160926080549 84 19 8.0 11.0 0.00 0.79 0.71 86 1007.2
20160926080049 84 23 6.0 11.0 0.00 0.79 0.71 86 1007.2
20160926075519 84 28 7.0 11.0 0.00 0.79 0.71 86 1006.8
20160926075019 84 28 7.0 11.0 0.00 0.79 0.71 86 1006.8
20160926074549 84 34 8.0 10.0 0.00 0.79 0.71 86 1006.8
20160926074049 84 20 8.0 11.0 0.00 0.79 0.71 86 1006.7
20160926073549 84 29 9.0 11.0 0.00 0.79 0.71 86 1006.7
20160926073019 84 33 10.0 12.0 0.00 0.79 0.71 86 1006.7
20160926072519 84 32 9.0 13.0 0.00 0.79 0.71 86 1006.6
20160926072049 84 31 11.0 13.0 0.00 0.79 0.71 86 1006.6
20160926071549 84 42 12.0 13.0 0.00 0.79 0.71 86 1006.6
20160926071049 84 43 11.0 13.0 0.00 0.79 0.71 86 1006.5
20160926070549 84 40 11.0 12.0 0.00 0.79 0.71 86 1006.5
20160926070049 84 37 10.0 13.0 0.00 0.79 0.71 84 1006.5
20160926065549 84 42 11.0 14.0 0.00 0.79 0.71 85 1006.5
20160926065019 84 46 10.0 14.0 0.00 0.79 0.71 87 1006.5
20160926064519 84 44 11.0 15.0 0.00 0.79 0.71 86 1006.5
20160926064019 85 42 12.0 15.0 0.00 0.79 0.71 86 1006.2
20160926063549 85 35 7.0 12.0 0.00 0.79 0.71 85 1006.2
20160926063049 85 36 9.0 11.0 0.00 0.79 0.71 85 1006.2
20160926062549 85 38 4.0 10.0 0.00 0.79 0.71 84 1006.3
20160926062049 85 39 8.0 10.0 0.00 0.79 0.71 85 1006.3
20160926061549 85 28 8.0 10.0 0.00 0.79 0.71 85 1006.3
20160926061049 85 30 4.0 11.0 0.00 0.79 0.71 85 1006.2
20160926060549 85 34 8.0 11.0 0.00 0.79 0.71 85 1006.2
20160926060049 85 32 4.0 9.0 0.00 0.79 0.71 83 1006.2
20160926055519 85 36 4.0 9.0 0.00 0.79 0.71 84 1006.2
20160926055049 85 27 4.0 11.0 0.00 0.79 0.71 85 1006.2
20160926054549 85 32 5.0 11.0 0.00 0.79 0.71 84 1006.2
20160926054049 85 29 6.0 11.0 0.00 0.79 0.71 83 1006.2
20160926053519 85 38 10.0 11.0 0.00 0.79 0.71 84 1006.2
20160926053019 85 32 9.0 11.0 0.00 0.79 0.71 84 1006.2
20160926052549 85 36 10.0 11.0 0.00 0.79 0.71 85 1006.1
20160926052049 85 37 7.0 11.0 0.00 0.79 0.71 87 1006.1
20160926051549 85 40 9.0 9.0 0.00 0.79 0.71 86 1006.1
20160926051049 85 34 5.0 10.0 0.00 0.79 0.71 87 1006.1
20160926050549 85 31 6.0 10.0 0.00 0.79 0.71 86 1006.1
20160926050049 85 36 9.0 11.0 0.00 0.79 0.71 86 1006.1
20160926045549 85 28 9.0 11.0 0.00 0.79 0.71 86 1006.1
20160926045019 85 35 5.0 10.0 0.00 0.79 0.71 86 1006.1
20160926044549 85 32 3.0 10.0 0.00 0.79 0.71 86 1006.1
20160926044019 85 44 6.0 10.0 0.00 0.79 0.71 86 1006.1
20160926043519 85 31 10.0 10.0 0.00 0.79 0.71 86 1006.1
20160926043019 85 46 7.0 10.0 0.00 0.79 0.71 87 1006.1
20160926042549 85 43 7.0 10.0 0.00 0.79 0.71 86 1006.2
20160926042049 85 44 7.0 10.0 0.00 0.79 0.71 85 1006.2
20160926041519 85 38 9.0 10.0 0.00 0.79 0.71 86 1006.2
20160926041049 85 30 9.0 10.0 0.00 0.79 0.71 87 1006.2
20160926040549 85 26 6.0 10.0 0.00 0.79 0.71 86 1006.2
20160926040049 85 26 7.0 10.0 0.00 0.79 0.71 86 1006.2
20160926035549 85 35 7.0 11.0 0.00 0.79 0.71 86 1006.3
20160926035049 85 44 7.0 11.0 0.00 0.79 0.71 85 1006.3
20160926034519 85 45 6.0 10.0 0.00 0.79 0.71 86 1006.3
20160926034019 85 42 8.0 10.0 0.00 0.79 0.71 85 1006.6
20160926033519 85 36 7.0 10.0 0.00 0.79 0.71 87 1006.6
20160926033049 85 40 6.0 9.0 0.00 0.79 0.71 85 1006.6
20160926032519 85 45 6.0 9.0 0.00 0.79 0.71 86 1006.6
20160926032049 85 41 7.0 10.0 0.00 0.79 0.71 86 1006.6
20160926031519 85 46 7.0 10.0 0.00 0.79 0.71 86 1006.6
20160926031019 84 33 7.0 10.0 0.00 0.79 0.71 85 1006.7
20160926030549 85 16 5.0 10.0 0.00 0.79 0.71 86 1006.7
20160926030049 85 35 7.0 10.0 0.00 0.79 0.71 87 1006.7
20160926025549 85 40 8.0 11.0 0.00 0.79 0.71 86 1006.9
20160926025049 85 38 8.0 11.0 0.00 0.79 0.71 86 1006.9
20160926024519 85 38 7.0 10.0 0.00 0.79 0.71 86 1006.9
20160926024049 85 39 6.0 9.0 0.00 0.79 0.71 85 1007.1
20160926023519 85 35 7.0 9.0 0.00 0.79 0.71 84 1007.1
20160926023049 85 38 5.0 9.0 0.00 0.79 0.71 85 1007.1
20160926022549 85 43 5.0 9.0 0.00 0.79 0.71 84 1007.3
20160926022019 86 32 5.0 9.0 0.00 0.79 0.71 86 1007.3
20160926021549 85 30 5.0 7.0 0.00 0.79 0.71 85 1007.3
20160926021019 85 11 6.0 6.0 0.00 0.79 0.71 85 1007.7
20160926020549 85 23 3.0 7.0 0.00 0.79 0.71 85 1007.7
20160926020049 85 36 5.0 7.0 0.00 0.79 0.71 85 1007.7
20160926015519 85 40 4.0 5.0 0.00 0.79 0.71 85 1008.0
20160926015049 85 42 0.0 5.0 0.00 0.79 0.71 86 1008.0
20160926014549 84 37 0.0 0.0 0.00 0.79 0.71 89 1008.0
20160926014019 84 9 0.0 0.0 0.00 0.79 0.71 87 1008.2
20160926013519 84 21 0.0 0.0 0.00 0.79 0.71 87 1008.2
20160926013019 83 25 0.0 0.0 0.00 0.79 0.71 89 1008.2
20160926012519 83 25 0.0 0.0 0.00 0.79 0.71 89 1008.3
20160926012019 82 25 0.0 0.0 0.00 0.79 0.71 88 1008.2
20160926011519 82 25 0.0 0.0 0.00 0.79 0.71 89 1008.2
20160926011049 82 25 0.0 0.0 0.00 0.79 0.71 89 1008.3
20160926010519 82 25 0.0 0.0 0.00 0.79 0.71 90 1008.3
20160926010049 82 25 0.0 0.0 0.00 0.79 0.71 89 1008.3
20160926005549 81 25 0.0 0.0 0.00 0.79 0.71 90 1008.7
20160926005019 81 25 0.0 0.0 0.00 0.79 0.71 90 1008.7
20160926004519 81 360 0.0 0.0 0.00 0.79 0.71 91 1008.7
20160926004019 81 30 0.0 0.0 0.00 0.79 0.71 91 1008.8
20160926003519 81 30 0.0 0.0 0.00 0.79 0.71 92 1008.8
20160926003019 81 13 0.0 0.0 0.00 0.79 0.71 94 1008.8
20160926002549 80 334 0.0 0.0 0.00 0.79 0.71 93 1008.8
20160926002019 80 294 0.0 0.0 0.00 0.79 0.71 93 1008.8
20160926001549 80 294 0.0 0.0 0.00 0.79 0.71 94 1008.8
20160926001019 80 294 0.0 0.0 0.00 0.79 0.71 94 1009.3
20160926000519 79 294 0.0 0.0 0.00 0.79 0.71 94 1009.2
20160926000049 79 294 0.0 0.0 0.00 0.79 0.71 96 1009.2
20160925235549 79 294 0.0 0.0 0.00 0.79 0.71 95 1009.4
20160925235019 79 294 0.0 0.0 0.00 0.79 0.71 95 1009.4
20160925234519 79 305 0.0 0.0 0.00 0.79 0.71 95 1009.4
20160925234019 78 305 0.0 0.0 0.01 0.79 0.71 95 1009.4
20160925233519 79 304 0.0 0.0 0.01 0.79 0.71 96 1009.4
20160925233019 78 305 0.0 0.0 0.01 0.79 0.71 96 1009.4
20160925232519 78 350 0.0 0.0 0.10 0.79 0.71 96 1009.8
20160925232019 78 327 0.0 0.0 0.24 0.79 0.71 96 1009.8
20160925231519 78 309 0.0 0.0 0.28 0.79 0.71 96 1009.8
20160925231019 78 298 0.0 0.0 0.39 0.79 0.71 96 1009.7
20160925230549 78 300 0.0 0.0 0.43 0.79 0.71 97 1009.7
20160925230049 78 308 0.0 3.0 0.43 0.79 0.71 97 1009.7
20160925225549 78 292 0.0 3.0 0.44 0.79 0.71 97 1009.8
20160925225019 78 142 0.0 1.0 0.48 0.79 0.71 97 1009.8
20160925224549 77 142 0.0 0.0 0.59 0.79 0.71 97 1009.7
20160925224019 77 142 0.0 3.0 0.64 0.78 0.70 97 1009.6
20160925223549 77 142 0.0 4.0 0.64 0.78 0.70 96 1009.6
20160925223019 77 175 3.0 11.0 0.64 0.78 0.70 96 1009.6
20160925222519 77 185 3.0 11.0 0.55 0.69 0.61 96 1009.3
20160925222019 77 151 3.0 5.0 0.41 0.55 0.47 96 1009.3
20160925221519 77 281 0.0 4.0 0.37 0.51 0.43 96 1009.3
20160925221019 77 342 0.0 2.0 0.26 0.40 0.32 96 1009.1
20160925220519 77 315 0.0 2.0 0.22 0.37 0.28 96 1009.1
20160925220049 77 164 1.0 1.0 0.22 0.37 0.28 95 1009.1
20160925215519 77 151 0.0 10.0 0.21 0.36 0.27 95 1009.2
20160925215019 78 151 1.0 10.0 0.17 0.32 0.23 96 1009.3
20160925214519 78 102 9.0 9.0 0.06 0.21 0.12 97 1009.3
20160925214049 78 230 0.0 0.0 0.00 0.15 0.06 96 1008.7
20160925213519 78 230 0.0 0.0 0.01 0.15 0.06 97 1008.7
20160925213049 78 274 0.0 0.0 0.01 0.15 0.06 96 1008.7
20160925212519 78 274 0.0 0.0 0.02 0.15 0.06 96 1008.5
20160925212019 78 274 0.0 0.0 0.05 0.15 0.06 96 1008.5
20160925211519 78 274 0.0 2.0 0.06 0.15 0.06 96 1008.5
20160925211019 78 294 0.0 2.0 0.06 0.15 0.06 96 1008.3
20160925210549 78 274 0.0 1.0 0.06 0.15 0.06 96 1008.3
20160925210049 77 271 0.0 1.0 0.06 0.15 0.06 96 1008.3
20160925205519 77 271 0.0 5.0 0.06 0.15 0.06 96 1008.2
20160925205019 77 286 0.0 5.0 0.06 0.15 0.06 96 1008.2
20160925204549 77 306 3.0 4.0 0.06 0.15 0.06 96 1008.2
20160925204049 77 61 0.0 2.0 0.06 0.15 0.06 95 1008.0
20160925203519 77 61 0.0 5.0 0.05 0.14 0.05 95 1008.0
20160925203049 77 62 2.0 10.0 0.05 0.14 0.05 96 1008.1
20160925202519 77 66 4.0 12.0 0.04 0.13 0.04 95 1007.7
20160925202019 78 98 9.0 12.0 0.01 0.10 0.01 97 1007.7
20160925201519 78 189 0.0 3.0 0.00 0.09 0.00 97 1007.7
20160925200519 78 276 0.0 2.0 0.00 0.09 0.00 97 1007.5
20160925200049 78 188 0.0 2.0 0.00 0.09 0.00 98 1007.5
20160925195519 78 170 0.0 2.0 0.00 0.09 0.00 97 1007.2
20160925195019 78 302 0.0 0.0 0.00 0.09 0.00 97 1007.2
20160925194519 78 302 0.0 1.0 0.00 0.09 0.00 97 1007.2
20160925194019 78 302 0.0 1.0 0.00 0.09 0.00 97 1007.0
20160925193519 78 302 0.0 1.0 0.00 0.09 0.00 97 1007.0
20160925193019 78 302 0.0 1.0 0.00 0.09 0.00 97 1007.0
20160925192519 78 302 0.0 1.0 0.00 0.09 0.00 97 1006.9
20160925192019 78 302 0.0 0.0 0.00 0.09 0.00 97 1006.9
20160925191519 78 302 0.0 1.0 0.00 0.09 0.00 97 1006.9
20160925191019 78 302 0.0 1.0 0.00 0.09 0.00 97 1006.7